[[{"header":{"parameterUnit":"m.s-1","parameterCategory":1,"la1":30.2991,"la2":30.254,"lo1":-89.0895,"lo2":-89.0444,"dy":0.0017,"dx":0.0017,"nx":28,"ny":28,"refTime":"2025-04-06T03:00:00:Z","depth":0,"parameterNumber":2,"parameterNumberName":"U-component_of_WINDS"},"data":[0,0,0,0,0,0,0,0,0,0,0,0,0,0,0,0,0,0,0,0,0,0,0,0,0,0,0,0,0,0,0,0,0,0,0,0,0,0,0,0,0,0,0,0,0,0,0,0,0,0,0,0,0,0,0,0,0,0,2.7609,2.7607,0,2.7424,2.7421,2.7419,2.7294,2.7293,2.7292,2.7291,2.7097,2.7093,2.7089,0,0,0,0,0,0,0,0,0,0,0,0,0,2.7852,2.7848,2.7609,2.7607,2.7605,2.7424,2.7421,2.7419,2.7294,2.7293,2.7292,2.7291,2.7099,2.7094,2.7088,0,0,0,0,0,0,0,0,0,0,0,0,0,2.7715,2.7847,2.761,2.7521,2.7511,2.7424,2.7421,2.7418,2.7294,2.7293,2.7291,2.729,2.71,2.7094,2.7088,2.7074,0,0,2.7068,2.7065,0,0,0,0,0,0,0,0,2.7723,2.7706,2.7536,2.7527,2.7515,2.738,2.7436,2.7303,2.7294,2.7376,2.7291,2.729,2.7192,2.7178,2.7146,2.7065,2.7057,2.7067,2.7063,2.706,2.7059,0,0,0,0,0,0,0,2.7732,2.7713,2.7535,2.7534,2.7521,2.7489,2.7468,2.741,2.7294,2.7369,2.7359,2.7339,2.7186,2.7153,2.7141,2.7054,2.7067,2.7062,2.7058,2.7055,2.6952,2.6953,0,0,0,0,0,0,2.7756,2.7722,2.7541,2.753,2.7618,2.7486,2.7462,2.7425,2.7294,2.7273,2.7341,2.7334,2.7165,2.7148,2.7133,2.7109,2.7061,2.7054,2.7051,2.6951,2.6952,2.6954,0,0,0,0,0,0,2.7762,2.7741,2.7549,2.7623,2.7596,2.7483,2.7442,2.7422,2.7388,2.7273,2.7251,2.7328,2.7163,2.7143,2.709,2.71,2.7051,2.7046,2.695,2.6951,2.6953,2.706,0,0,0,0,0,0,2.777,2.7744,2.7739,2.7624,2.7593,2.751,2.7443,2.7419,2.7378,2.7368,2.7255,2.7235,2.716,2.71,2.7084,2.709,2.704,2.6948,2.695,2.6952,2.7055,2.7065,2.7073,0,0,0,0,0,2.7779,2.7775,2.7739,2.7718,2.7584,2.7511,2.7493,2.7408,2.7379,2.7372,2.7298,2.7239,2.7102,2.7096,2.7076,2.7081,2.6947,2.695,2.6952,2.705,2.7063,2.7073,0,0,0,0,0,0,2.7892,2.7758,2.7717,2.7676,2.7606,2.749,2.7478,2.7424,2.7359,2.7352,2.7248,2.7224,2.7182,2.7126,2.7122,2.7061,2.7017,2.7016,2.7099,2.711,2.7119,2.7133,2.7035,0,0,0,0,0,2.7913,2.7866,2.7751,2.7726,2.7693,2.7593,2.7557,2.7498,2.7421,2.739,2.7312,2.7238,2.7178,2.7141,2.708,2.7046,2.702,2.704,2.705,2.7058,2.7058,2.7036,2.7043,2.6962,2.6962,2.6962,0,0,2.7954,2.7875,2.7851,2.7747,2.7686,2.7639,2.7568,2.7521,2.7484,2.7382,2.7328,2.7269,2.7179,2.7137,2.7114,2.7089,2.7074,2.7061,2.7069,2.7063,2.7039,2.7047,2.7054,2.6964,2.6964,2.6963,0,0,2.8005,2.7941,2.7914,2.7854,2.7763,2.7696,2.769,2.7582,2.7539,2.7483,2.7406,2.736,2.726,2.7199,2.7156,2.7186,2.7129,2.7169,2.7218,2.7198,2.7204,2.7209,2.722,2.7225,2.7169,2.717,2.717,0,2.8067,2.7994,2.7906,2.7864,2.782,2.7727,2.7698,2.7644,2.7537,2.7509,2.7483,2.7355,2.7288,2.723,2.7238,2.7206,2.7195,2.7181,2.7211,2.7215,2.7218,2.7227,2.7231,2.7175,2.7174,2.7174,2.7173,0,2.8076,2.8026,2.8015,2.7916,2.7871,2.7835,2.7741,2.7706,2.7651,2.7587,2.7532,2.7449,2.7369,2.7351,2.7297,2.7285,2.7273,2.723,2.7184,2.7233,2.7239,2.7242,2.7183,2.7181,2.7179,2.7178,0,0,2.8191,2.8045,2.8042,2.7996,2.789,2.7849,2.781,2.7733,2.7705,2.7635,2.7598,2.7517,2.7477,2.7427,2.7365,2.7348,2.7377,2.7307,2.7303,2.7323,2.7359,2.7392,2.7397,2.7339,2.734,2.734,2.7367,0,2.8226,2.8152,2.8071,2.8024,2.7978,2.7889,2.7855,2.7785,2.7725,2.7675,2.7607,2.7551,2.7503,2.7472,2.7451,2.7378,2.7383,2.7375,2.7303,2.7302,2.7328,2.74,2.7434,2.7464,2.7369,2.7369,2.7369,0,2.8256,2.8192,2.8141,2.8039,2.8016,2.7987,2.7911,2.7865,2.7784,2.7741,2.7687,2.7622,2.7575,2.7536,2.7469,2.7466,2.7432,2.7392,2.7391,2.738,2.7338,2.7391,2.7471,2.7476,2.7373,2.7372,2.7372,0,2.8346,2.8246,2.8203,2.8166,2.8046,2.8028,2.7977,2.7894,2.7854,2.7787,2.776,2.7689,2.7649,2.7595,2.7512,2.7491,2.7454,2.7408,2.7416,2.7419,2.7412,2.7413,2.7487,2.7392,2.7392,2.7391,2.7391,0,2.8392,2.8364,2.8241,2.8215,2.8181,2.8089,2.8058,2.7998,2.7927,2.7886,2.7805,2.7769,2.7662,2.7612,2.7547,2.7502,2.7485,2.7448,2.7431,2.7455,2.7459,2.743,2.7426,2.7393,2.7392,2.7392,2.7392,0,2.8486,2.8403,2.8349,2.8241,2.8213,2.8193,2.8099,2.807,2.8005,2.7955,2.7938,2.7836,2.7774,2.7686,2.7596,2.7552,2.7517,2.7489,2.7545,2.7534,2.7547,2.7547,2.7604,2.7607,2.7512,2.7513,2.7514,0,2.8521,2.8498,2.8387,2.8355,2.8307,2.8256,2.8215,2.8124,2.8084,2.7991,2.7973,2.7905,2.7845,2.775,2.7667,2.7599,2.7569,2.7593,2.7557,2.7583,2.7568,2.7571,2.7568,2.7602,2.7603,2.7605,2.7606,0,2.8592,2.8552,2.8496,2.8427,2.838,2.832,2.8257,2.8235,2.813,2.8089,2.8026,2.798,2.789,2.7823,2.7743,2.7689,2.763,2.7618,2.7616,2.764,2.7673,2.7655,2.7567,2.7617,2.7615,2.7615,2.7614,2.7614,2.8656,2.8632,2.8551,2.8491,2.8434,2.8377,2.8344,2.8276,2.8222,2.8142,2.8091,2.8031,2.795,2.7837,2.7786,2.7737,2.7712,2.771,2.7709,2.771,2.7718,2.7682,2.7722,2.7721,2.7721,2.7721,2.772,0,2.8722,2.8666,2.8613,2.8528,2.8481,2.8431,2.8358,2.8322,2.827,2.8201,2.8145,2.8072,2.8007,2.792,2.7849,2.7826,2.7797,2.781,2.781,2.7799,2.7744,2.7752,2.7835,2.7835,2.7835,2.7835,2.7835,2.7835,2.8752,2.8707,2.8659,2.8585,2.8528,2.8469,2.8432,2.8378,2.8323,2.8246,2.8192,2.8136,2.8059,2.7982,2.7921,2.7896,2.7874,2.7895,2.7863,2.7813,2.7803,2.7793,2.78,2.7891,2.7892,2.7922,2.7922,2.7923]},{"header":{"parameterUnit":"m.s-1","parameterCategory":1,"la1":30.2991,"la2":30.254,"lo1":-89.0895,"lo2":-89.0444,"dy":0.0017,"dx":0.0017,"nx":28,"ny":28,"refTime":"2025-04-06T03:00:00:Z","depth":0,"parameterNumber":3,"parameterNumberName":"V-component_of_WINDS"},"data":[0,0,0,0,0,0,0,0,0,0,0,0,0,0,0,0,0,0,0,0,0,0,0,0,0,0,0,0,0,0,0,0,0,0,0,0,0,0,0,0,0,0,0,0,0,0,0,0,0,0,0,0,0,0,0,0,0,0,-6.6488,-6.649,0,-6.6681,-6.6683,-6.6685,-6.6685,-6.6683,-6.668,-6.6678,-6.6867,-6.6874,-6.6881,0,0,0,0,0,0,0,0,0,0,0,0,0,-6.6114,-6.6121,-6.6488,-6.649,-6.6493,-6.668,-6.6683,-6.6686,-6.6685,-6.6682,-6.6679,-6.6677,-6.6865,-6.6873,-6.6882,0,0,0,0,0,0,0,0,0,0,0,0,0,-6.6288,-6.6123,-6.6487,-6.6515,-6.652,-6.668,-6.6683,-6.6686,-6.6686,-6.6682,-6.6679,-6.6675,-6.6862,-6.6872,-6.6883,-6.7026,0,0,-6.6917,-6.6922,0,0,0,0,0,0,0,0,-6.6278,-6.6302,-6.6509,-6.6514,-6.6519,-6.6655,-6.6621,-6.68,-6.6687,-6.6623,-6.6678,-6.6673,-6.6799,-6.6815,-6.6859,-6.7035,-6.7043,-6.6918,-6.6925,-6.6929,-6.6933,0,0,0,0,0,0,0,-6.6266,-6.6294,-6.6564,-6.6512,-6.6518,-6.6516,-6.6537,-6.6654,-6.6729,-6.6628,-6.6629,-6.6652,-6.6801,-6.6848,-6.6863,-6.7045,-6.6918,-6.6927,-6.6934,-6.6939,-6.7349,-6.7353,0,0,0,0,0,0,-6.6249,-6.6284,-6.6558,-6.657,-6.6387,-6.6526,-6.6549,-6.6615,-6.6728,-6.6742,-6.6655,-6.6651,-6.6831,-6.6851,-6.687,-6.7045,-6.6929,-6.694,-6.6946,-6.7344,-6.735,-6.7354,0,0,0,0,0,0,-6.6241,-6.6274,-6.655,-6.6427,-6.6462,-6.6537,-6.661,-6.6621,-6.6668,-6.6748,-6.6761,-6.669,-6.6829,-6.6855,-6.6988,-6.7052,-6.6945,-6.6955,-6.7339,-6.7346,-6.7352,-6.7396,0,0,0,0,0,0,-6.6231,-6.6271,-6.6327,-6.6428,-6.6469,-6.6667,-6.6614,-6.6627,-6.6688,-6.6685,-6.6784,-6.6797,-6.6828,-6.6971,-6.6999,-6.7065,-6.6963,-6.7334,-6.7342,-6.735,-6.7389,-6.7403,-6.7415,0,0,0,0,0,-6.6217,-6.633,-6.633,-6.6363,-6.6541,-6.667,-6.6693,-6.6729,-6.6693,-6.675,-6.6801,-6.6794,-6.7041,-6.6985,-6.7016,-6.7086,-6.733,-6.734,-6.7349,-6.7383,-6.74,-6.7414,0,0,0,0,0,0,-6.6231,-6.6343,-6.6345,-6.6494,-6.6573,-6.667,-6.6742,-6.6745,-6.6834,-6.6827,-6.6865,-6.6888,-6.7021,-6.7067,-6.7003,-6.7231,-6.7181,-6.7197,-6.7196,-6.7213,-6.7225,-6.7211,-6.6972,0,0,0,0,0,-6.6252,-6.635,-6.6442,-6.6564,-6.6604,-6.6667,-6.6724,-6.6745,-6.6828,-6.686,-6.6921,-6.6999,-6.7094,-6.7156,-6.7248,-6.7396,-6.7417,-6.7459,-6.7472,-6.7482,-6.7496,-6.7578,-6.7598,-6.7386,-6.7386,-6.7386,0,0,-6.6294,-6.6368,-6.6427,-6.6569,-6.6633,-6.6732,-6.6694,-6.68,-6.6874,-6.6875,-6.7006,-6.7054,-6.7143,-6.7285,-6.735,-6.7327,-6.7559,-6.7495,-6.7502,-6.751,-6.759,-6.761,-6.7628,-6.7392,-6.7391,-6.739,0,0,-6.6423,-6.6489,-6.6599,-6.6665,-6.6763,-6.6805,-6.6831,-6.6929,-6.6962,-6.7094,-6.7098,-6.7184,-6.7347,-6.7412,-6.7465,-6.7622,-6.7618,-6.765,-6.7717,-6.7797,-6.7814,-6.7829,-6.7885,-6.7904,-6.7663,-6.7663,-6.7663,0,-6.6463,-6.6615,-6.6654,-6.6762,-6.6824,-6.6834,-6.6945,-6.7006,-6.7128,-6.717,-6.7143,-6.7349,-6.741,-6.7567,-6.7606,-6.7649,-6.768,-6.7638,-6.7809,-6.7824,-6.7839,-6.7892,-6.7913,-6.7667,-6.7666,-6.7666,-6.7666,0,-6.666,-6.6765,-6.6842,-6.6963,-6.7034,-6.7142,-6.7197,-6.7263,-6.7279,-6.7322,-6.7457,-6.7531,-6.7639,-6.7678,-6.7692,-6.7838,-6.782,-6.7801,-6.7751,-6.7862,-6.7912,-6.7933,-6.7671,-6.767,-6.7669,-6.7668,0,0,-6.68,-6.6945,-6.6972,-6.7028,-6.7139,-6.722,-6.7328,-6.7437,-6.7493,-6.7577,-6.7669,-6.7808,-6.7792,-6.7853,-6.7875,-6.7945,-6.8065,-6.7917,-6.792,-6.7942,-6.8229,-6.8243,-6.8266,-6.8064,-6.8068,-6.8071,-6.8222,0,-6.6941,-6.7138,-6.7178,-6.7347,-6.7445,-6.7456,-6.7551,-6.7628,-6.7672,-6.776,-6.7807,-6.7906,-6.7876,-6.7913,-6.7984,-6.8035,-6.8123,-6.8025,-6.8147,-6.8151,-6.8125,-6.8293,-6.8308,-6.8446,-6.8242,-6.8246,-6.8248,0,-6.7131,-6.7224,-6.7404,-6.7504,-6.7546,-6.7631,-6.7734,-6.7819,-6.7906,-6.7933,-6.8003,-6.8018,-6.813,-6.8077,-6.8231,-6.8163,-6.8216,-6.8249,-6.8255,-6.8267,-6.8206,-6.8309,-6.8492,-6.8512,-6.828,-6.8277,-6.8275,0,-6.7216,-6.7385,-6.7516,-6.7563,-6.7682,-6.7742,-6.7794,-6.7878,-6.7941,-6.8031,-6.8072,-6.8172,-6.8227,-6.8303,-6.8345,-6.8302,-6.8496,-6.8446,-6.852,-6.8519,-6.856,-6.8556,-6.8753,-6.8594,-6.8594,-6.8594,-6.8593,0,-6.7368,-6.7478,-6.7556,-6.7636,-6.7759,-6.7804,-6.7923,-6.7974,-6.805,-6.8138,-6.8154,-6.8236,-6.8286,-6.8375,-6.8408,-6.8531,-6.8555,-6.8579,-6.8586,-6.8578,-6.8575,-6.8612,-6.8603,-6.8599,-6.8598,-6.8597,-6.8596,0,-6.7483,-6.754,-6.7683,-6.7785,-6.7814,-6.79,-6.7987,-6.8064,-6.8109,-6.8221,-6.825,-6.832,-6.8426,-6.8476,-6.8605,-6.8628,-6.8767,-6.8768,-6.8739,-6.8741,-6.8814,-6.8806,-6.904,-6.9073,-6.8893,-6.8895,-6.8896,0,-6.7577,-6.7662,-6.7775,-6.7837,-6.7892,-6.7991,-6.8057,-6.8104,-6.8171,-6.8279,-6.8343,-6.8451,-6.8539,-6.8708,-6.8769,-6.8869,-6.8871,-6.8947,-6.8886,-6.8875,-6.8872,-6.8867,-6.8875,-6.8957,-6.8959,-6.896,-6.8961,0,-6.7736,-6.7761,-6.7857,-6.7964,-6.8043,-6.8128,-6.8211,-6.826,-6.832,-6.8395,-6.8506,-6.8575,-6.871,-6.8816,-6.8921,-6.8972,-6.8976,-6.898,-6.9003,-6.8994,-6.8974,-6.8986,-6.8768,-6.8974,-6.8973,-6.8972,-6.8971,-6.8971,-6.7843,-6.792,-6.8013,-6.8119,-6.8188,-6.8266,-6.8345,-6.8401,-6.8496,-6.8611,-6.8633,-6.875,-6.8836,-6.8978,-6.9033,-6.9124,-6.9106,-6.9139,-6.9147,-6.9154,-6.9158,-6.8961,-6.9143,-6.9143,-6.9142,-6.9142,-6.9142,0,-6.8004,-6.8065,-6.8163,-6.8281,-6.8365,-6.8366,-6.8459,-6.8528,-6.8632,-6.8714,-6.8802,-6.8929,-6.9033,-6.9103,-6.9208,-6.9268,-6.9272,-6.9293,-6.9289,-6.9301,-6.9168,-6.9138,-6.9288,-6.9288,-6.9288,-6.9288,-6.9288,-6.9288,-6.8097,-6.8228,-6.8264,-6.8429,-6.8488,-6.8606,-6.8659,-6.8731,-6.8797,-6.894,-6.9027,-6.9074,-6.9151,-6.9262,-6.9357,-6.9374,-6.9412,-6.9434,-6.945,-6.9325,-6.931,-6.9295,-6.9267,-6.9441,-6.9442,-6.9575,-6.9577,-6.9578]}]]